[[{"header":{"parameterUnit":"m.s-1","parameterCategory":1,"la1":30.2991,"la2":30.254,"lo1":-89.0895,"lo2":-89.0444,"dy":0.0017,"dx":0.0017,"nx":28,"ny":28,"refTime":"2025-04-29T09:00:00:Z","depth":0,"parameterNumber":2,"parameterNumberName":"U-component_of_WINDS"},"data":[0,0,0,0,0,0,0,0,0,0,0,0,0,0,0,0,0,0,0,0,0,0,0,0,0,0,0,0,0,0,0,0,0,0,0,0,0,0,0,0,0,0,0,0,0,0,0,0,0,0,0,0,0,0,0,0,0,0,-1.5685,-1.5686,0,-1.5736,-1.5737,-1.5737,-1.5739,-1.5738,-1.5737,-1.5737,-1.5789,-1.5791,-1.5793,0,0,0,0,0,0,0,0,0,0,0,0,0,-1.559,-1.5592,-1.5685,-1.5686,-1.5687,-1.5736,-1.5737,-1.5738,-1.5739,-1.5738,-1.5737,-1.5736,-1.5788,-1.579,-1.5793,0,0,0,0,0,0,0,0,0,0,0,0,0,-1.5635,-1.5593,-1.5685,-1.5693,-1.5694,-1.5736,-1.5737,-1.5738,-1.5739,-1.5738,-1.5737,-1.5736,-1.5787,-1.579,-1.5793,-1.583,0,0,-1.5802,-1.5803,0,0,0,0,0,0,0,0,-1.5633,-1.5639,-1.5691,-1.5693,-1.5694,-1.573,-1.5722,-1.5769,-1.5739,-1.5722,-1.5737,-1.5736,-1.577,-1.5774,-1.5786,-1.5833,-1.5835,-1.5802,-1.5804,-1.5805,-1.5806,0,0,0,0,0,0,0,-1.563,-1.5637,-1.5705,-1.5692,-1.5694,-1.5695,-1.57,-1.5731,-1.5751,-1.5723,-1.5724,-1.573,-1.577,-1.5783,-1.5787,-1.5836,-1.5802,-1.5805,-1.5807,-1.5808,-1.5917,-1.5918,0,0,0,0,0,0,-1.5625,-1.5634,-1.5704,-1.5707,-1.5661,-1.5697,-1.5703,-1.5719,-1.575,-1.5754,-1.573,-1.5729,-1.5778,-1.5784,-1.5789,-1.5835,-1.5805,-1.5808,-1.581,-1.5916,-1.5918,-1.5919,0,0,0,0,0,0,-1.5623,-1.5631,-1.5702,-1.5671,-1.568,-1.57,-1.5718,-1.5721,-1.5733,-1.5756,-1.5759,-1.5739,-1.5778,-1.5785,-1.582,-1.5837,-1.5809,-1.5812,-1.5915,-1.5917,-1.5918,-1.5928,0,0,0,0,0,0,-1.562,-1.563,-1.5644,-1.5671,-1.5681,-1.5732,-1.5719,-1.5723,-1.5739,-1.5738,-1.5765,-1.5769,-1.5778,-1.5816,-1.5823,-1.5841,-1.5814,-1.5913,-1.5916,-1.5918,-1.5926,-1.593,-1.5933,0,0,0,0,0,-1.5617,-1.5645,-1.5645,-1.5653,-1.5699,-1.5733,-1.5739,-1.5749,-1.574,-1.5754,-1.5769,-1.5768,-1.5834,-1.582,-1.5828,-1.5846,-1.5912,-1.5915,-1.5917,-1.5925,-1.5929,-1.5933,0,0,0,0,0,0,-1.5619,-1.5648,-1.5649,-1.5686,-1.5707,-1.5733,-1.5751,-1.5753,-1.5777,-1.5775,-1.5786,-1.5792,-1.5828,-1.5841,-1.5824,-1.5885,-1.5872,-1.5877,-1.5875,-1.5879,-1.5883,-1.5879,-1.5817,0,0,0,0,0,-1.5624,-1.5648,-1.5673,-1.5703,-1.5714,-1.5731,-1.5746,-1.5752,-1.5774,-1.5783,-1.58,-1.5822,-1.5848,-1.5864,-1.5889,-1.5928,-1.5935,-1.5946,-1.5949,-1.5951,-1.5955,-1.5978,-1.5983,-1.5927,-1.5927,-1.5927,0,0,-1.5633,-1.5653,-1.5667,-1.5704,-1.5721,-1.5747,-1.5738,-1.5766,-1.5785,-1.5787,-1.5822,-1.5835,-1.586,-1.5898,-1.5916,-1.591,-1.5972,-1.5955,-1.5957,-1.5959,-1.5981,-1.5987,-1.5991,-1.5929,-1.5929,-1.5928,0,0,-1.5665,-1.5682,-1.571,-1.5727,-1.5753,-1.5765,-1.5772,-1.5798,-1.5807,-1.5843,-1.5845,-1.5869,-1.5913,-1.5931,-1.5946,-1.5987,-1.5987,-1.5995,-1.6012,-1.6034,-1.6039,-1.6043,-1.6058,-1.6063,-1.5998,-1.5998,-1.5998,0,-1.5674,-1.5713,-1.5724,-1.5752,-1.5768,-1.5772,-1.5801,-1.5817,-1.585,-1.5862,-1.5855,-1.5912,-1.5929,-1.5972,-1.5982,-1.5994,-1.6003,-1.5991,-1.6037,-1.6041,-1.6045,-1.606,-1.6066,-1.5999,-1.5999,-1.5999,-1.5999,0,-1.5723,-1.575,-1.577,-1.5802,-1.5821,-1.5849,-1.5865,-1.5883,-1.5888,-1.5901,-1.5938,-1.5958,-1.5988,-1.5999,-1.6004,-1.6043,-1.6039,-1.6035,-1.6022,-1.6051,-1.6065,-1.6071,-1.6,-1.6,-1.6,-1.6,0,0,-1.5756,-1.5795,-1.5802,-1.5818,-1.5848,-1.5869,-1.5898,-1.5928,-1.5944,-1.5967,-1.5992,-1.6031,-1.6027,-1.6044,-1.6052,-1.6071,-1.6104,-1.6065,-1.6066,-1.6072,-1.615,-1.6153,-1.6159,-1.6104,-1.6105,-1.6106,-1.6148,0,-1.5791,-1.5842,-1.5854,-1.5899,-1.5925,-1.593,-1.5955,-1.5977,-1.599,-1.6014,-1.6029,-1.6056,-1.6049,-1.606,-1.608,-1.6095,-1.6119,-1.6093,-1.6128,-1.6129,-1.6122,-1.6166,-1.6169,-1.6207,-1.6153,-1.6154,-1.6155,0,-1.5838,-1.5863,-1.5911,-1.5939,-1.595,-1.5973,-1.6002,-1.6025,-1.6051,-1.6059,-1.6079,-1.6085,-1.6116,-1.6103,-1.6147,-1.6128,-1.6144,-1.6154,-1.6156,-1.6159,-1.6144,-1.6171,-1.6219,-1.6225,-1.6163,-1.6163,-1.6162,0,-1.5858,-1.5904,-1.5938,-1.5951,-1.5985,-1.6001,-1.6016,-1.604,-1.6058,-1.6084,-1.6096,-1.6125,-1.6141,-1.6163,-1.6177,-1.6166,-1.622,-1.6208,-1.6228,-1.6228,-1.6239,-1.6238,-1.6291,-1.6249,-1.6249,-1.6249,-1.6249,0,-1.5896,-1.5925,-1.5948,-1.5969,-1.6002,-1.6016,-1.6048,-1.6063,-1.6085,-1.611,-1.6117,-1.614,-1.6156,-1.6182,-1.6193,-1.6229,-1.6236,-1.6244,-1.6246,-1.6243,-1.6242,-1.6253,-1.6251,-1.625,-1.625,-1.625,-1.6249,0,-1.5923,-1.594,-1.5978,-1.6007,-1.6015,-1.6039,-1.6064,-1.6085,-1.6099,-1.6131,-1.6139,-1.6161,-1.6192,-1.6208,-1.6246,-1.6254,-1.6294,-1.6295,-1.6285,-1.6286,-1.6306,-1.6304,-1.6368,-1.6377,-1.6329,-1.633,-1.633,0,-1.5946,-1.5969,-1.6001,-1.6018,-1.6034,-1.6061,-1.608,-1.6095,-1.6114,-1.6146,-1.6163,-1.6195,-1.6221,-1.627,-1.629,-1.632,-1.6321,-1.6342,-1.6326,-1.6323,-1.6322,-1.6321,-1.6324,-1.6344,-1.6345,-1.6345,-1.6345,0,-1.5985,-1.5993,-1.6019,-1.6049,-1.6072,-1.6096,-1.612,-1.6134,-1.6153,-1.6174,-1.6206,-1.6226,-1.6267,-1.6298,-1.633,-1.6346,-1.6349,-1.635,-1.6357,-1.6354,-1.6348,-1.6352,-1.6293,-1.6349,-1.6348,-1.6348,-1.6348,-1.6348,-1.6012,-1.6032,-1.6059,-1.6089,-1.6109,-1.6131,-1.6153,-1.6171,-1.6198,-1.6231,-1.6239,-1.6273,-1.63,-1.6343,-1.636,-1.6387,-1.6383,-1.6392,-1.6394,-1.6397,-1.6398,-1.6344,-1.6393,-1.6393,-1.6393,-1.6393,-1.6393,0,-1.6052,-1.607,-1.6097,-1.6131,-1.6155,-1.6156,-1.6183,-1.6203,-1.6233,-1.6258,-1.6284,-1.6321,-1.6353,-1.6375,-1.6407,-1.6425,-1.6427,-1.6433,-1.6431,-1.6435,-1.6399,-1.6391,-1.643,-1.643,-1.643,-1.643,-1.643,-1.643,-1.6075,-1.6111,-1.6122,-1.6169,-1.6186,-1.622,-1.6236,-1.6257,-1.6277,-1.6319,-1.6345,-1.6359,-1.6384,-1.6418,-1.6447,-1.6453,-1.6464,-1.647,-1.6476,-1.6442,-1.6438,-1.6434,-1.6426,-1.6472,-1.6472,-1.6509,-1.651,-1.651]},{"header":{"parameterUnit":"m.s-1","parameterCategory":1,"la1":30.2991,"la2":30.254,"lo1":-89.0895,"lo2":-89.0444,"dy":0.0017,"dx":0.0017,"nx":28,"ny":28,"refTime":"2025-04-29T09:00:00:Z","depth":0,"parameterNumber":3,"parameterNumberName":"V-component_of_WINDS"},"data":[0,0,0,0,0,0,0,0,0,0,0,0,0,0,0,0,0,0,0,0,0,0,0,0,0,0,0,0,0,0,0,0,0,0,0,0,0,0,0,0,0,0,0,0,0,0,0,0,0,0,0,0,0,0,0,0,0,0,2.7105,2.7105,0,2.7088,2.7088,2.7087,2.7039,2.7038,2.7037,2.7036,2.702,2.702,2.7021,0,0,0,0,0,0,0,0,0,0,0,0,0,2.7097,2.7098,2.7105,2.7105,2.7104,2.7088,2.7088,2.7087,2.7039,2.7038,2.7037,2.7036,2.7019,2.702,2.7021,0,0,0,0,0,0,0,0,0,0,0,0,0,2.7092,2.7098,2.7105,2.7078,2.7076,2.7088,2.7088,2.7087,2.704,2.7038,2.7037,2.7035,2.7019,2.702,2.7021,2.7057,0,0,2.7023,2.7023,0,0,0,0,0,0,0,0,2.7093,2.7093,2.7082,2.708,2.7077,2.7064,2.7079,2.7077,2.704,2.7053,2.7036,2.7034,2.7036,2.7035,2.7035,2.7056,2.7056,2.7023,2.7024,2.7024,2.7024,0,0,0,0,0,0,0,2.7093,2.7093,2.7098,2.7082,2.7079,2.7068,2.7065,2.7078,2.7054,2.7052,2.7049,2.7047,2.7034,2.7035,2.7034,2.7055,2.7023,2.7024,2.7024,2.7025,2.7106,2.7107,0,0,0,0,0,0,2.7097,2.7094,2.7099,2.7097,2.7081,2.7069,2.7067,2.707,2.7053,2.7049,2.7049,2.7045,2.7034,2.7034,2.7034,2.7075,2.7024,2.7025,2.7025,2.7104,2.7106,2.7108,0,0,0,0,0,0,2.7097,2.7098,2.7099,2.7095,2.7094,2.7071,2.7075,2.707,2.7071,2.7051,2.7046,2.7054,2.7033,2.7033,2.7052,2.7074,2.7025,2.7026,2.7102,2.7105,2.7107,2.7158,0,0,0,0,0,0,2.7097,2.7098,2.7111,2.7095,2.7094,2.7117,2.7077,2.7071,2.7072,2.7068,2.7054,2.705,2.7032,2.7051,2.7052,2.7074,2.7026,2.71,2.7103,2.7106,2.7154,2.7162,2.7169,0,0,0,0,0,2.7097,2.7126,2.7112,2.7113,2.711,2.7118,2.7118,2.7095,2.7074,2.7087,2.7075,2.7051,2.7071,2.7053,2.7055,2.7077,2.7098,2.7102,2.7106,2.7151,2.716,2.7168,0,0,0,0,0,0,2.7145,2.7124,2.7108,2.7133,2.7128,2.711,2.7126,2.7106,2.7107,2.7102,2.7075,2.7072,2.7095,2.7088,2.7068,2.7111,2.7081,2.7085,2.7115,2.7124,2.7131,2.7131,2.7027,0,0,0,0,0,2.7159,2.7167,2.7148,2.7172,2.717,2.7149,2.7152,2.7135,2.7129,2.7126,2.7115,2.711,2.7115,2.7119,2.7123,2.7154,2.715,2.717,2.7177,2.7183,2.7187,2.7202,2.7211,2.712,2.712,2.712,0,0,2.7187,2.7176,2.7183,2.7182,2.7176,2.7185,2.7147,2.7159,2.7165,2.7128,2.7145,2.7137,2.713,2.7155,2.7165,2.7149,2.7211,2.7188,2.7193,2.7193,2.7207,2.7216,2.7223,2.7123,2.7122,2.7122,0,0,2.7243,2.7236,2.7255,2.725,2.7242,2.7228,2.7233,2.7218,2.7211,2.7228,2.72,2.7208,2.7218,2.7214,2.7213,2.727,2.7248,2.7272,2.7309,2.7325,2.7332,2.7338,2.7358,2.7365,2.7276,2.7276,2.7276,0,2.7279,2.7291,2.7267,2.7281,2.7281,2.7248,2.7268,2.7264,2.7258,2.7259,2.7242,2.7254,2.7247,2.727,2.7284,2.7285,2.729,2.7273,2.7333,2.7339,2.7344,2.7363,2.737,2.7279,2.7279,2.7278,2.7278,0,2.7336,2.7345,2.7362,2.7357,2.7359,2.7375,2.7354,2.736,2.7344,2.7332,2.7349,2.734,2.7341,2.7346,2.733,2.7368,2.7358,2.7338,2.7306,2.7356,2.7373,2.738,2.7283,2.7282,2.7281,2.7281,0,0,2.742,2.7402,2.7409,2.7406,2.7395,2.7402,2.7418,2.7419,2.7424,2.7422,2.7434,2.7444,2.7424,2.7424,2.7408,2.7422,2.7467,2.7399,2.7398,2.7411,2.7507,2.7523,2.7531,2.7453,2.7454,2.7455,2.7508,0,2.7472,2.7497,2.7476,2.7505,2.7514,2.7483,2.7497,2.7492,2.7482,2.7488,2.7477,2.7484,2.7458,2.7457,2.747,2.7458,2.7485,2.7454,2.7464,2.7464,2.7465,2.754,2.7556,2.7606,2.7514,2.7515,2.7516,0,2.7536,2.7536,2.7565,2.7554,2.7556,2.7569,2.7569,2.7575,2.757,2.7561,2.7561,2.7541,2.7556,2.7527,2.7547,2.7527,2.753,2.7525,2.7526,2.7525,2.7492,2.754,2.7621,2.7629,2.7526,2.7526,2.7525,0,2.7593,2.7601,2.762,2.7619,2.7605,2.7615,2.761,2.7603,2.7605,2.7606,2.7607,2.761,2.7611,2.7613,2.7595,2.7575,2.7618,2.7587,2.7611,2.7612,2.762,2.762,2.7702,2.7624,2.7624,2.7624,2.7624,0,2.7653,2.7672,2.7646,2.7657,2.7678,2.7655,2.7677,2.7668,2.7663,2.7672,2.7647,2.7657,2.7632,2.764,2.7626,2.7645,2.7646,2.7639,2.7635,2.7641,2.7641,2.7641,2.7637,2.7626,2.7625,2.7625,2.7624,0,2.772,2.7703,2.7721,2.7708,2.7705,2.7721,2.7709,2.772,2.7708,2.7721,2.7723,2.7705,2.7712,2.7695,2.77,2.769,2.7717,2.7708,2.7719,2.7716,2.774,2.7738,2.7825,2.7835,2.7751,2.7752,2.7753,0,2.7758,2.7772,2.7761,2.7765,2.7762,2.777,2.7772,2.7751,2.7755,2.775,2.7761,2.7767,2.777,2.7783,2.7771,2.7775,2.7765,2.7795,2.7765,2.7771,2.7764,2.7763,2.7765,2.7801,2.7802,2.7803,2.7803,0,2.7828,2.782,2.7824,2.7826,2.783,2.7831,2.783,2.7835,2.7812,2.7818,2.7826,2.7828,2.7834,2.7839,2.7841,2.7836,2.7816,2.7813,2.7819,2.7824,2.783,2.7827,2.7735,2.7811,2.781,2.781,2.7809,2.7809,2.7882,2.7893,2.7887,2.7893,2.789,2.789,2.7899,2.7889,2.7895,2.7897,2.7885,2.7895,2.789,2.789,2.7887,2.7895,2.7882,2.789,2.7892,2.7894,2.7898,2.783,2.7896,2.7895,2.7895,2.7895,2.7895,0,2.795,2.7945,2.7951,2.795,2.7955,2.7937,2.7935,2.794,2.795,2.7947,2.7951,2.796,2.7965,2.7954,2.7958,2.7967,2.7958,2.7969,2.7967,2.7966,2.791,2.7904,2.7976,2.7976,2.7976,2.7976,2.7976,2.7976,2.7986,2.8004,2.7995,2.8011,2.8006,2.8016,2.8016,2.8016,2.8014,2.8025,2.803,2.8023,2.8016,2.802,2.8025,2.8021,2.8024,2.8038,2.8031,2.7978,2.797,2.7963,2.7957,2.8039,2.8039,2.8087,2.8087,2.8087]}]]